QPF
0.00 0.00 0.00 0.00 0.00 0.00 0.00 0.00 0.00 0.00 0.00 0.00 0.00 0.00 0.00 0.00 0.00 0.00 0.00 0.00 0.00 0.00 0.00 0.01 0.01 0.01 0.01 0.01 0.00 0.00 0.00 0.00 0.00 0.00 0.01 0.01 0.01 0.02 0.04 0.01 0.00 0.00 0.00 0.00
0.00 0.00 0.00 0.00 0.00 0.00 0.00 0.00 0.00 0.00 0.00 0.00 0.00 0.00 0.00 0.00 0.00 0.00 0.00 0.00 0.00 0.00 0.00 0.01 0.01 0.01 0.01 0.00 0.01 0.00 0.00 0.00 0.00 0.00 0.01 0.01 0.01 0.01 0.01 0.01 0.00 0.01 0.02 0.03
0.00 0.00 0.00 0.00 0.00 0.00 0.00 0.00 0.00 0.00 0.00 0.00 0.00 0.00 0.00 0.00 0.00 0.00 0.00 0.00 0.00 0.00 0.00 0.00 0.01 0.01 0.00 0.00 0.00 0.00 0.00 0.00 0.00 0.00 0.00 0.00 0.00 0.00 0.00 0.00 0.01 0.00 0.01 0.01
0.00 0.00 0.00 0.00 0.00 0.00 0.00 0.00 0.00 0.00 0.00 0.00 0.00 0.00 0.00 0.00 0.00 0.00 0.00 0.00 0.00 0.00 0.00 0.00 0.01 0.01 0.00 0.00 0.00 0.00 0.00 0.00 0.00 0.00 0.00 0.00 0.00 0.00 0.00 0.00 0.00 0.00 0.00 0.00
0.00 0.00 0.00 0.00 0.00 0.00 0.00 0.00 0.00 0.00 0.00 0.00 0.00 0.00 0.00 0.00 0.00 0.00 0.00 0.00 0.00 0.00 0.00 0.00 0.01 0.01 0.01 0.00 0.00 0.00 0.00 0.00 0.00 0.00 0.00 0.00 0.00 0.00 0.00 0.00 0.00 0.00 0.00 0.00
0.01 0.00 0.00 0.00 0.00 0.00 0.00 0.00 0.00 0.00 0.00 0.00 0.00 0.00 0.00 0.00 0.00 0.00 0.00 0.00 0.00 0.00 0.00 0.00 0.00 0.01 0.01 0.00 0.00 0.00 0.00 0.00 0.00 0.00 0.00 0.00 0.00 0.00 0.00 0.00 0.00 0.00 0.00 0.00
0.00 0.00 0.00 0.00 0.00 0.00 0.00 0.00 0.00 0.00 0.00 0.00 0.00 0.00 0.00 0.00 0.00 0.00 0.00 0.00 0.00 0.00 0.00 0.00 0.00 0.00 0.01 0.00 0.00 0.01 0.00 0.00 0.00 0.00 0.00 0.00 0.00 0.00 0.00 0.00 0.00 0.00 0.00 0.00
0.00 0.00 0.00 0.00 0.00 0.00 0.00 0.00 0.00 0.00 0.00 0.00 0.00 0.00 0.00 0.00 0.00 0.00 0.00 0.00 0.00 0.00 0.00 0.00 0.00 0.00 0.00 0.00 0.00 0.00 0.00 0.00 0.00 0.00 0.00 0.00 0.00 0.00 0.00 0.00 0.00 0.00 0.00 0.00
0.00 0.00 0.00 0.00 0.00 0.00 0.00 0.00 0.00 0.00 0.00 0.00 0.00 0.00 0.00 0.00 0.00 0.00 0.00 0.00 0.00 0.00 0.00 0.00 0.00 0.00 0.00 0.00 0.00 0.00 0.00 0.00 0.00 0.00 0.00 0.00 0.00 0.00 0.00 0.00 0.00 0.00 0.00 0.00
0.00 0.00 0.00 0.00 0.00 0.00 0.00 0.00 0.00 0.00 0.00 0.00 0.00 0.00 0.00 0.00 0.00 0.00 0.00 0.00 0.00 0.00 0.00 0.00 0.00 0.00 0.00 0.00 0.00 0.00 0.00 0.00 0.00 0.00 0.00 0.00 0.00 0.00 0.00 0.00 0.00 0.00 0.00 0.00
0.00 0.00 0.00 0.00 0.00 0.00 0.00 0.00 0.00 0.00 0.00 0.00 0.00 0.00 0.00 0.00 0.00 0.00 0.00 0.00 0.00 0.00 0.00 0.00 0.00 0.00 0.00 0.00 0.00 0.00 0.00 0.00 0.00 0.00 0.00 0.00 0.00 0.00 0.00 0.00 0.00 0.00 0.00 0.00
0.00 0.00 0.00 0.00 0.00 0.00 0.00 0.00 0.00 0.00 0.00 0.00 0.00 0.00 0.00 0.00 0.00 0.00 0.00 0.00 0.00 0.00 0.00 0.00 0.00 0.00 0.00 0.00 0.00 0.00 0.00 0.00 0.00 0.00 0.00 0.00 0.00 0.00 0.00 0.00 0.00 0.00 0.00 0.00
0.00 0.00 0.00 0.00 0.00 0.00 0.00 0.00 0.00 0.00 0.00 0.00 0.00 0.00 0.00 0.00 0.00 0.00 0.00 0.00 0.00 0.00 0.00 0.00 0.00 0.00 0.00 0.00 0.00 0.00 0.00 0.00 0.00 0.00 0.00 0.00 0.00 0.00 0.00 0.00 0.00 0.00 0.00 0.00
0.00 0.00 0.00 0.00 0.00 0.00 0.00 0.00 0.00 0.00 0.00 0.00 0.00 0.00 0.00 0.00 0.00 0.00 0.00 0.00 0.00 0.00 0.00 0.00 0.00 0.00 0.00 0.00 0.00 0.00 0.00 0.00 0.00 0.00 0.00 0.00 0.00 0.00 0.00 0.00 0.00 0.00 0.00 0.00
0.00 0.00 0.00 0.00 0.00 0.00 0.00 0.00 0.00 0.00 0.00 0.00 0.00 0.00 0.00 0.00 0.00 0.00 0.00 0.00 0.00 0.00 0.00 0.00 0.00 0.00 0.00 0.00 0.00 0.00 0.00 0.00 0.00 0.00 0.00 0.00 0.00 0.00 0.00 0.00 0.00 0.00 0.00 0.00
0.00 0.00 0.00 0.00 0.00 0.00 0.00 0.00 0.00 0.00 0.00 0.00 0.00 0.00 0.00 0.00 0.00 0.00 0.00 0.00 0.00 0.00 0.00 0.00 0.00 0.00 0.00 0.00 0.00 0.00 0.00 0.00 0.00 0.00 0.00 0.00 0.00 0.00 0.00 0.00 0.00 0.00 0.00 0.00
0.00 0.00 0.00 0.00 0.00 0.00 0.00 0.00 0.00 0.00 0.00 0.00 0.00 0.00 0.00 0.00 0.00 0.00 0.00 0.00 0.00 0.00 0.00 0.00 0.00 0.00 0.00 0.00 0.00 0.00 0.00 0.00 0.00 0.00 0.00 0.00 0.00 0.00 0.00 0.00 0.00 0.00 0.00 0.00
0.00 0.00 0.00 0.00 0.00 0.00 0.00 0.00 0.00 0.00 0.00 0.00 0.00 0.00 0.00 0.00 0.00 0.00 0.00 0.00 0.00 0.00 0.00 0.00 0.00 0.00 0.00 0.00 0.00 0.00 0.00 0.00 0.00 0.00 0.00 0.00 0.00 0.00 0.00 0.00 0.00 0.00 0.00 0.00
0.00 0.00 0.00 0.00 0.00 0.00 0.00 0.00 0.00 0.00 0.00 0.00 0.00 0.00 0.00 0.00 0.00 0.00 0.00 0.00 0.00 0.00 0.00 0.00 0.00 0.00 0.00 0.00 0.00 0.00 0.00 0.00 0.00 0.00 0.00 0.00 0.00 0.00 0.00 0.00 0.00 0.00 0.00 0.00
0.00 0.00 0.00 0.00 0.00 0.00 0.00 0.00 0.00 0.00 0.00 0.00 0.00 0.00 0.00 0.00 0.00 0.00 0.00 0.00 0.00 0.00 0.00 0.00 0.00 0.00 0.00 0.00 0.00 0.00 0.00 0.00 0.00 0.00 0.00 0.00 0.00 0.00 0.00 0.00 0.00 0.00 0.00 0.00
0.00 0.00 0.00 0.00 0.00 0.00 0.00 0.00 0.00 0.00 0.00 0.00 0.00 0.00 0.00 0.00 0.00 0.00 0.00 0.00 0.00 0.00 0.00 0.00 0.00 0.00 0.00 0.00 0.00 0.00 0.00 0.00 0.00 0.00 0.00 0.00 0.00 0.00 0.00 0.00 0.00 0.00 0.00 0.00
0.00 0.00 0.00 0.00 0.00 0.00 0.00 0.00 0.00 0.00 0.00 0.00 0.00 0.00 0.00 0.00 0.00 0.00 0.00 0.00 0.00 0.00 0.00 0.00 0.00 0.00 0.00 0.00 0.00 0.00 0.00 0.00 0.00 0.00 0.00 0.00 0.00 0.00 0.00 0.00 0.00 0.00 0.00 0.00
0.00 0.00 0.00 0.00 0.00 0.00 0.00 0.00 0.00 0.00 0.00 0.00 0.00 0.00 0.00 0.00 0.00 0.00 0.00 0.00 0.00 0.00 0.00 0.00 0.00 0.00 0.00 0.00 0.00 0.00 0.00 0.00 0.00 0.00 0.00 0.00 0.00 0.00 0.00 0.00 0.00 0.00 0.00 0.00
0.00 0.00 0.00 0.00 0.00 0.00 0.00 0.00 0.00 0.00 0.00 0.00 0.00 0.00 0.00 0.00 0.00 0.00 0.00 0.00 0.00 0.00 0.00 0.00 0.00 0.00 0.00 0.00 0.00 0.00 0.00 0.00 0.00 0.00 0.00 0.00 0.00 0.00 0.00 0.00 0.00 0.00 0.00 0.00
0.00 0.00 0.00 0.00 0.00 0.00 0.00 0.00 0.00 0.00 0.00 0.00 0.00 0.00 0.00 0.00 0.00 0.00 0.00 0.00 0.00 0.00 0.00 0.00 0.00 0.00 0.00 0.00 0.00 0.00 0.00 0.00 0.00 0.00 0.00 0.00 0.00 0.00 0.00 0.00 0.00 0.00 0.00 0.00
0.00 0.00 0.00 0.00 0.00 0.00 0.00 0.00 0.00 0.00 0.00 0.00 0.00 0.00 0.00 0.00 0.00 0.00 0.00 0.00 0.00 0.00 0.00 0.00 0.00 0.00 0.00 0.00 0.00 0.00 0.00 0.00 0.00 0.00 0.00 0.00 0.00 0.00 0.00 0.00 0.00 0.00 0.00 0.00
0.00 0.00 0.00 0.00 0.00 0.00 0.00 0.00 0.00 0.00 0.00 0.00 0.00 0.00 0.00 0.00 0.00 0.00 0.00 0.00 0.00 0.00 0.00 0.00 0.00 0.00 0.00 0.00 0.00 0.00 0.00 0.00 0.00 0.00 0.00 0.00 0.00 0.00 0.00 0.00 0.00 0.00 0.00 0.00
MSLP
1025.55 1025.77 1024.98 1024.38 1024.32 1024.24 1023.77 1023.78 1023.78 1023.47 1023.08 1022.56 1022.86 1022.78 1022.55 1022.50 1022.49 1022.53 1022.98 1023.20 1023.07 1023.18 1023.53 1023.50 1023.34 1023.03 1022.51 1022.22 1021.82 1021.26 1020.51 1020.07 1019.20 1018.53 1017.70 1017.50 1017.11 1016.94 1016.83 1017.08 1017.11 1017.21 1017.39 1017.50
1025.35 1025.04 1024.82 1024.37 1024.05 1023.74 1023.83 1023.82 1023.95 1024.17 1023.54 1023.49 1023.23 1023.07 1022.79 1022.80 1022.91 1023.12 1023.33 1023.34 1023.19 1023.25 1023.54 1023.60 1023.38 1023.07 1022.63 1022.14 1021.56 1020.96 1020.30 1019.57 1018.80 1018.31 1017.73 1016.75 1016.97 1017.00 1016.85 1016.83 1016.82 1016.90 1017.10 1017.51
1024.75 1024.83 1024.49 1023.79 1023.43 1023.64 1023.94 1024.56 1025.15 1025.03 1024.67 1024.49 1024.03 1023.69 1023.40 1023.41 1023.81 1023.99 1023.84 1023.79 1023.62 1023.43 1023.48 1023.61 1023.31 1023.06 1022.58 1021.87 1021.23 1020.61 1019.87 1018.90 1018.12 1017.70 1017.20 1017.07 1016.90 1016.50 1016.51 1016.83 1017.08 1016.93 1017.03 1017.38
1024.66 1024.98 1023.94 1023.78 1023.96 1024.12 1024.10 1024.44 1024.95 1025.16 1025.10 1025.05 1024.57 1023.92 1023.91 1024.11 1024.96 1024.94 1024.87 1024.62 1024.25 1023.92 1023.51 1023.17 1023.21 1022.80 1022.14 1021.83 1021.08 1020.41 1019.35 1018.82 1018.43 1018.19 1017.75 1017.99 1017.61 1017.54 1017.74 1017.63 1017.36 1016.94 1017.49 1018.14
1024.40 1023.73 1022.66 1022.60 1023.80 1024.39 1024.68 1024.02 1024.03 1024.63 1024.93 1025.07 1024.76 1024.17 1023.61 1025.21 1025.68 1025.71 1025.75 1025.54 1025.31 1024.87 1024.21 1023.37 1023.07 1022.83 1021.90 1021.41 1020.79 1020.27 1019.59 1019.12 1018.67 1018.65 1018.48 1018.38 1018.14 1018.35 1018.34 1018.33 1018.67 1018.79 1019.19 1019.71
1023.85 1023.64 1022.42 1023.06 1023.62 1023.66 1024.14 1022.78 1023.08 1024.04 1024.56 1024.96 1025.11 1024.40 1024.62 1025.51 1026.01 1026.02 1026.01 1025.94 1025.47 1024.98 1024.60 1023.99 1023.31 1022.82 1022.12 1021.61 1021.08 1020.75 1020.23 1020.47 1020.25 1019.62 1019.03 1019.27 1019.52 1019.34 1019.22 1019.32 1019.63 1019.99 1020.50 1020.99
1022.98 1022.80 1021.66 1022.57 1022.66 1023.01 1022.99 1022.88 1022.77 1023.09 1023.86 1024.26 1024.74 1025.05 1025.06 1025.48 1025.72 1025.90 1025.93 1025.79 1025.26 1024.94 1024.58 1024.32 1023.66 1023.02 1022.45 1022.07 1021.44 1021.07 1021.11 1020.87 1020.44 1020.25 1020.14 1020.21 1020.16 1020.12 1020.08 1020.23 1020.53 1020.89 1021.11 1021.42
1022.20 1021.98 1021.70 1022.05 1022.28 1022.54 1022.26 1021.76 1021.86 1021.81 1021.91 1022.58 1023.48 1024.03 1024.40 1024.85 1025.15 1025.17 1025.20 1025.06 1024.81 1024.80 1024.66 1024.50 1024.12 1023.40 1022.54 1022.19 1022.04 1021.77 1021.29 1020.94 1020.95 1021.05 1020.77 1020.69 1020.80 1020.99 1020.97 1021.06 1021.11 1021.23 1021.44 1021.65
1021.62 1021.15 1021.43 1021.38 1021.67 1021.66 1021.49 1021.21 1021.01 1021.07 1021.10 1021.51 1021.80 1022.11 1022.69 1023.46 1023.68 1023.24 1023.49 1023.45 1023.72 1024.70 1024.42 1024.06 1024.15 1023.71 1022.90 1022.02 1021.93 1021.93 1021.78 1021.58 1021.54 1021.47 1021.60 1021.38 1021.49 1021.76 1021.76 1021.81 1021.77 1021.80 1021.93 1021.99
1020.67 1019.39 1019.43 1020.15 1020.45 1020.54 1020.75 1020.65 1020.56 1020.54 1020.63 1020.92 1021.09 1021.35 1021.62 1021.92 1022.18 1022.27 1022.29 1022.41 1022.79 1023.75 1023.97 1023.47 1023.55 1023.25 1022.41 1022.10 1021.71 1021.81 1022.15 1022.19 1022.11 1022.04 1022.16 1022.14 1022.12 1022.13 1022.02 1022.22 1022.56 1022.57 1022.44 1022.48
1018.24 1017.75 1018.15 1018.34 1018.85 1019.32 1019.70 1019.99 1020.10 1020.11 1020.21 1020.43 1020.70 1020.77 1021.06 1021.19 1021.47 1021.78 1021.82 1021.90 1022.19 1022.76 1022.66 1022.38 1022.43 1022.47 1022.36 1022.23 1021.90 1021.52 1021.62 1021.64 1021.70 1021.76 1021.71 1022.01 1022.47 1022.87 1023.20 1024.06 1023.78 1023.07 1022.80 1022.84
1015.68 1015.51 1016.05 1016.04 1017.28 1018.22 1018.80 1019.16 1019.51 1019.70 1019.79 1020.12 1020.42 1020.49 1020.82 1020.91 1021.32 1021.41 1021.47 1021.69 1021.70 1021.84 1021.97 1022.03 1021.97 1021.85 1021.88 1022.02 1021.82 1021.60 1021.48 1021.67 1021.59 1021.22 1021.15 1021.41 1022.23 1023.46 1024.64 1024.57 1024.47 1024.34 1024.12 1023.80
1014.48 1014.76 1015.22 1015.57 1016.32 1017.24 1017.93 1018.42 1018.90 1019.24 1019.38 1019.50 1019.91 1020.29 1020.58 1020.84 1021.31 1021.93 1021.56 1021.57 1021.58 1021.83 1022.01 1022.04 1022.04 1022.14 1022.31 1022.36 1022.19 1022.14 1021.94 1021.93 1021.78 1021.66 1021.58 1021.67 1021.82 1022.06 1023.15 1024.44 1024.70 1024.54 1024.45 1024.45
1014.31 1014.76 1014.91 1015.25 1015.49 1016.50 1017.26 1017.83 1018.43 1018.69 1018.95 1019.28 1019.53 1019.93 1020.35 1020.66 1021.05 1021.24 1021.19 1021.49 1021.76 1021.90 1022.03 1022.11 1022.10 1022.30 1022.62 1022.53 1022.40 1022.36 1022.46 1022.82 1021.92 1021.92 1021.91 1021.87 1021.92 1022.04 1022.32 1022.77 1023.15 1023.64 1024.22 1024.10
1013.58 1014.14 1014.06 1014.60 1015.09 1015.94 1016.69 1017.24 1017.62 1018.02 1018.33 1018.72 1019.24 1019.64 1020.00 1020.43 1020.60 1020.80 1021.01 1021.38 1021.68 1021.84 1021.90 1022.06 1022.16 1022.39 1022.80 1022.93 1022.67 1022.55 1022.24 1022.03 1022.02 1022.38 1022.57 1022.34 1022.06 1022.05 1022.22 1022.40 1022.57 1022.75 1022.98 1023.76
1013.14 1013.50 1013.94 1014.08 1014.53 1015.09 1015.82 1016.32 1016.73 1017.04 1017.54 1018.01 1018.59 1019.14 1019.66 1020.02 1020.29 1020.45 1020.81 1021.08 1021.38 1021.12 1021.30 1021.78 1022.07 1022.40 1022.87 1022.91 1022.78 1022.66 1023.14 1023.35 1022.94 1021.88 1021.85 1021.90 1021.81 1021.84 1022.02 1022.13 1022.15 1022.28 1022.60 1023.17
1012.53 1012.71 1013.01 1013.11 1013.54 1014.07 1014.66 1015.43 1015.93 1016.33 1016.75 1017.34 1017.90 1018.54 1019.07 1019.52 1019.82 1020.03 1020.22 1020.50 1020.85 1021.04 1021.24 1021.38 1021.53 1021.98 1022.49 1022.63 1022.52 1022.15 1022.05 1022.52 1022.62 1021.73 1021.66 1021.71 1021.57 1021.58 1021.68 1021.75 1021.90 1022.01 1022.14 1022.93
1011.72 1012.16 1012.68 1013.13 1013.37 1013.80 1014.23 1014.81 1015.29 1015.69 1016.13 1016.62 1017.30 1017.93 1018.38 1018.72 1018.95 1019.18 1019.50 1019.81 1020.11 1020.35 1020.57 1020.80 1021.08 1021.49 1021.95 1022.21 1022.29 1022.01 1021.83 1021.79 1021.77 1021.76 1021.76 1021.70 1021.69 1021.41 1021.44 1021.49 1021.51 1021.50 1021.51 1021.99
1011.10 1011.45 1011.88 1012.23 1012.68 1013.03 1013.54 1014.06 1014.61 1015.16 1015.68 1016.19 1016.72 1017.15 1017.59 1017.89 1018.22 1018.51 1018.85 1019.14 1019.60 1019.67 1019.78 1020.03 1020.44 1021.08 1021.11 1021.43 1021.88 1021.69 1021.40 1021.33 1021.22 1021.14 1021.29 1021.85 1021.66 1021.09 1021.15 1021.19 1021.19 1021.13 1021.17 1021.37
1011.55 1011.31 1011.47 1011.62 1012.03 1012.45 1012.78 1013.27 1013.96 1014.54 1015.02 1015.56 1016.06 1016.46 1016.74 1017.12 1017.59 1017.92 1018.28 1018.32 1018.61 1018.81 1019.03 1019.21 1019.90 1020.21 1020.49 1020.70 1021.31 1021.29 1020.97 1020.81 1020.82 1020.78 1020.95 1021.14 1021.06 1021.01 1021.06 1021.25 1021.57 1021.28 1021.22 1021.22
1011.91 1011.76 1011.57 1011.51 1011.50 1011.85 1012.20 1012.58 1013.19 1013.62 1014.15 1014.74 1015.19 1015.54 1015.90 1016.19 1016.61 1017.23 1017.37 1017.35 1017.44 1017.83 1018.30 1018.80 1019.24 1019.45 1019.70 1019.96 1020.77 1020.91 1020.67 1020.51 1020.35 1020.32 1020.52 1020.77 1021.01 1021.10 1021.06 1020.97 1020.89 1020.88 1021.13 1021.14
1012.00 1011.70 1011.48 1011.22 1011.17 1011.18 1011.59 1012.05 1012.29 1013.04 1013.35 1013.75 1014.47 1015.20 1015.48 1015.43 1015.51 1015.82 1016.16 1016.36 1016.51 1016.92 1017.39 1017.92 1018.28 1018.66 1018.74 1019.22 1019.69 1019.97 1020.10 1020.00 1019.88 1019.89 1020.00 1020.20 1020.39 1020.59 1020.61 1020.55 1020.49 1020.57 1020.62 1020.52
1012.32 1011.86 1011.38 1011.07 1010.67 1010.56 1011.02 1011.38 1011.78 1012.03 1012.69 1013.00 1013.56 1014.18 1014.48 1014.51 1014.57 1014.66 1014.72 1015.13 1015.84 1016.16 1016.50 1016.85 1017.11 1017.65 1018.16 1018.78 1018.73 1018.90 1019.05 1019.15 1019.26 1019.33 1019.38 1019.57 1019.65 1019.91 1020.05 1020.02 1020.09 1020.05 1019.96 1019.87
1012.44 1011.85 1011.32 1010.88 1010.62 1010.43 1010.39 1010.49 1011.03 1011.31 1011.83 1012.27 1012.53 1012.99 1013.34 1013.52 1013.65 1013.77 1013.80 1014.07 1014.49 1015.07 1015.64 1015.89 1016.32 1016.81 1017.28 1017.73 1017.93 1017.98 1018.08 1018.17 1018.31 1018.47 1018.57 1018.73 1018.88 1019.15 1019.16 1019.27 1019.32 1019.24 1019.13 1019.08
1012.70 1011.95 1011.16 1010.61 1010.33 1010.03 1009.92 1009.97 1009.98 1010.30 1010.66 1011.05 1011.39 1011.54 1011.95 1012.18 1012.08 1012.51 1012.75 1013.04 1013.61 1014.18 1014.50 1015.03 1015.55 1016.01 1016.60 1016.74 1016.90 1016.99 1017.05 1017.15 1017.24 1017.41 1017.44 1017.58 1017.65 1017.98 1018.15 1018.29 1018.13 1018.25 1018.42 1018.40
1012.49 1011.65 1011.15 1010.40 1009.76 1009.46 1009.14 1009.03 1009.08 1009.08 1009.41 1009.56 1009.80 1010.14 1010.34 1010.67 1011.06 1011.41 1011.50 1011.85 1012.20 1012.85 1013.42 1013.87 1014.50 1015.12 1015.44 1015.57 1015.62 1015.66 1015.68 1015.70 1015.86 1016.02 1016.15 1016.17 1016.30 1016.48 1016.70 1016.87 1017.12 1017.31 1017.38 1017.42
1011.72 1011.30 1010.53 1009.73 1009.28 1008.77 1008.70 1008.65 1008.30 1008.19 1008.26 1008.32 1008.32 1008.57 1008.99 1009.37 1009.71 1010.06 1010.65 1010.78 1011.12 1011.52 1011.95 1012.59 1013.06 1013.53 1013.91 1014.18 1014.36 1014.37 1014.38 1014.41 1014.45 1014.48 1014.65 1014.80 1015.04 1015.19 1015.48 1015.75 1016.02 1016.27 1016.46 1016.59
Thickness
5456 5442 5466 5467 5457 5453 5454 5449 5435 5427 5426 5433 5421 5416 5417 5415 5411 5405 5392 5384 5381 5373 5365 5363 5364 5366 5374 5381 5399 5425 5449 5470 5492 5510 5530 5540 5550 5559 5565 5567 5573 5576 5577 5578
5454 5461 5464 5462 5465 5465 5459 5452 5444 5431 5431 5428 5426 5420 5417 5412 5406 5396 5386 5381 5378 5372 5363 5357 5357 5360 5365 5371 5384 5411 5437 5463 5485 5501 5519 5536 5542 5549 5557 5561 5567 5570 5572 5572
5471 5462 5467 5473 5465 5457 5451 5434 5418 5411 5417 5417 5414 5412 5411 5407 5396 5387 5384 5378 5373 5370 5364 5356 5358 5358 5364 5374 5386 5407 5433 5459 5481 5499 5516 5527 5534 5546 5552 5554 5555 5560 5563 5564
5462 5442 5464 5443 5430 5433 5441 5434 5422 5414 5411 5408 5409 5415 5409 5403 5386 5381 5378 5375 5373 5370 5369 5368 5365 5368 5374 5381 5397 5414 5440 5456 5472 5488 5505 5507 5519 5528 5533 5539 5546 5554 5553 5550
5454 5469 5478 5473 5435 5429 5423 5436 5427 5419 5413 5404 5412 5415 5419 5389 5379 5376 5371 5369 5365 5365 5367 5371 5372 5376 5384 5393 5405 5420 5433 5452 5468 5480 5493 5503 5510 5516 5522 5528 5529 5531 5531 5529
5467 5450 5458 5439 5428 5442 5436 5457 5443 5419 5412 5404 5404 5414 5412 5389 5379 5375 5372 5367 5367 5368 5367 5370 5374 5381 5391 5398 5406 5414 5428 5438 5453 5467 5485 5491 5497 5504 5511 5515 5516 5514 5510 5508
5480 5469 5481 5437 5447 5449 5448 5459 5446 5441 5423 5415 5410 5404 5396 5389 5383 5378 5376 5373 5376 5373 5372 5371 5376 5383 5393 5400 5411 5420 5426 5437 5453 5464 5474 5482 5489 5495 5500 5501 5501 5499 5497 5494
5491 5485 5474 5456 5458 5450 5453 5461 5458 5458 5455 5441 5421 5408 5400 5394 5388 5385 5384 5384 5386 5380 5378 5377 5379 5387 5396 5403 5411 5419 5431 5442 5449 5456 5466 5474 5479 5482 5487 5489 5490 5489 5484 5480
5500 5501 5471 5474 5452 5463 5466 5467 5468 5465 5463 5455 5449 5443 5434 5419 5413 5417 5410 5408 5404 5388 5389 5389 5387 5392 5399 5410 5416 5422 5429 5437 5444 5451 5456 5465 5468 5470 5473 5476 5478 5477 5469 5461
5505 5511 5511 5497 5491 5487 5481 5478 5476 5473 5469 5464 5460 5456 5450 5443 5436 5433 5430 5425 5420 5406 5399 5405 5401 5403 5412 5416 5423 5425 5424 5429 5437 5444 5447 5453 5459 5464 5468 5470 5468 5466 5464 5458
5530 5534 5526 5520 5510 5503 5496 5489 5484 5481 5477 5472 5467 5464 5458 5455 5449 5444 5441 5437 5432 5421 5422 5425 5423 5420 5421 5423 5428 5433 5436 5440 5443 5445 5450 5451 5451 5453 5455 5449 5453 5462 5461 5457
5549 5556 5545 5544 5528 5516 5507 5501 5494 5489 5485 5479 5474 5471 5466 5463 5457 5453 5449 5444 5443 5440 5437 5435 5434 5433 5431 5430 5433 5436 5440 5441 5444 5451 5455 5457 5455 5448 5441 5442 5444 5446 5448 5449
5565 5562 5555 5549 5539 5528 5518 5511 5504 5498 5494 5489 5483 5477 5473 5469 5463 5451 5454 5452 5449 5445 5442 5440 5440 5438 5436 5435 5437 5438 5442 5444 5447 5450 5454 5456 5459 5462 5456 5444 5443 5446 5446 5445
5567 5559 5554 5550 5545 5535 5526 5519 5510 5507 5502 5496 5491 5485 5479 5474 5469 5465 5463 5458 5453 5450 5447 5445 5444 5442 5438 5439 5440 5442 5442 5437 5450 5452 5453 5455 5458 5461 5463 5462 5461 5457 5447 5448
5568 5561 5561 5555 5550 5539 5531 5525 5519 5512 5508 5503 5496 5490 5485 5478 5475 5471 5468 5462 5457 5454 5452 5449 5448 5445 5441 5440 5443 5445 5449 5453 5454 5452 5452 5455 5459 5461 5462 5462 5462 5460 5458 5449
5567 5563 5557 5555 5550 5544 5536 5530 5525 5521 5515 5509 5502 5494 5488 5483 5479 5476 5470 5467 5462 5465 5461 5455 5451 5449 5444 5444 5446 5449 5445 5441 5446 5459 5460 5460 5462 5463 5462 5461 5462 5461 5457 5451
5563 5560 5557 5556 5553 5549 5542 5535 5530 5525 5521 5513 5507 5499 5492 5486 5482 5479 5476 5472 5467 5465 5462 5460 5459 5454 5450 5449 5451 5454 5455 5452 5450 5460 5462 5462 5463 5463 5462 5461 5459 5457 5456 5446
5568 5562 5558 5553 5550 5545 5542 5537 5532 5528 5523 5517 5510 5502 5497 5492 5488 5485 5481 5477 5473 5470 5467 5464 5462 5458 5454 5452 5452 5455 5457 5457 5458 5458 5459 5460 5461 5461 5461 5460 5458 5457 5455 5448
5567 5562 5559 5555 5551 5547 5542 5538 5532 5527 5522 5517 5511 5506 5501 5497 5492 5488 5484 5479 5473 5472 5471 5469 5462 5458 5460 5457 5453 5455 5458 5458 5459 5460 5459 5452 5455 5459 5458 5457 5456 5454 5451 5447
5551 5555 5554 5553 5549 5545 5542 5538 5532 5526 5522 5517 5512 5508 5504 5500 5494 5489 5485 5483 5479 5477 5475 5473 5466 5464 5462 5460 5452 5455 5457 5458 5458 5458 5456 5455 5456 5455 5454 5449 5447 5447 5445 5443
5536 5538 5541 5542 5544 5541 5538 5535 5527 5527 5522 5518 5514 5510 5506 5503 5498 5490 5488 5487 5486 5481 5478 5472 5469 5467 5465 5462 5454 5453 5455 5456 5457 5458 5455 5453 5449 5448 5448 5448 5446 5444 5439 5436
5526 5527 5529 5532 5534 5535 5532 5529 5528 5522 5521 5518 5508 5497 5500 5502 5501 5497 5493 5491 5490 5481 5481 5477 5474 5469 5469 5461 5459 5456 5454 5455 5455 5455 5453 5452 5450 5447 5446 5445 5443 5439 5436 5434
5506 5512 5517 5520 5524 5528 5524 5523 5521 5520 5507 5507 5504 5501 5501 5501 5500 5499 5498 5495 5490 5485 5483 5481 5478 5472 5467 5463 5463 5460 5458 5457 5455 5454 5453 5450 5449 5445 5443 5441 5438 5436 5433 5431
5489 5496 5500 5506 5510 5513 5515 5518 5514 5513 5508 5507 5506 5502 5500 5498 5498 5497 5497 5495 5490 5485 5483 5481 5477 5470 5466 5466 5463 5462 5460 5458 5457 5454 5452 5448 5447 5443 5442 5438 5435 5433 5432 5428
5467 5476 5484 5489 5494 5500 5503 5505 5506 5507 5506 5504 5503 5503 5498 5498 5500 5496 5496 5495 5486 5484 5485 5477 5471 5467 5465 5465 5462 5461 5460 5458 5457 5454 5453 5451 5448 5443 5439 5437 5436 5432 5427 5424
5449 5458 5464 5473 5480 5486 5493 5496 5497 5502 5501 5503 5503 5501 5500 5498 5495 5493 5494 5492 5492 5485 5483 5479 5473 5467 5465 5464 5463 5461 5460 5459 5457 5454 5452 5452 5450 5447 5442 5438 5433 5429 5425 5421
5433 5433 5449 5458 5465 5473 5475 5481 5488 5493 5495 5497 5502 5502 5498 5496 5494 5492 5490 5490 5488 5486 5483 5478 5474 5470 5468 5465 5463 5462 5461 5460 5458 5458 5455 5453 5449 5445 5441 5437 5432 5426 5421 5416